TITAN 3C TRANSTAGE DEB, 43453

Orbit data source: Space-Track

TITAN 3C TRANSTAGE DEB, 43453 is space debris in GEO originally from a launch on Sun, 09 Feb 1969 UTC launched from the Air Force Eastern Test Range (AFETR). Debris objects in space refer to the collection of defunct objects orbiting the Earth. Examples of debris include non-operational satellites, rocket bodies, and fragments generated from explosions, collisions, or faulty payload assembly.

Not visible in the next 10 days
Identifier
43453, 1969-013L
Orbit
GEO
Country
Flag of USUS
Related business
Manufacturer
Martin Marietta
Mission
Spacecraft
Bus & Motor
Unknown
Mass
Unknown
Launch date (UTC)
1969-02-09 (57 years ago)
Launch vehicle
Unknown
Launch site
Air Force Eastern Test Range (AFETR)
Object type
Payload
Rocket body
Debris
Shape & HBR
Unknown shape, 1.1 m
Radar Cross Section
RCS unknown

Expand to show TLE details & history
Last TLE update: 2 days ago

TLE from 2 days ago
0 TITAN 3C TRANSTAGE DEB
1 43453U 69013L   25351.11652334 -.00000082  00000-0  00000-0 0  9990
2 43453   1.3240 152.3725 0652800 335.5080  21.3507  1.07376496 30083
Epoch: 2025-12-17T02:47Z
TLE epoch observation values (Epoch: 2025-12-17T02:47:47.616Z)
Latitude
-0°
Longitude
24.25951°
Altitude
31,486.762 km
Speed
3.341 km/s
True Right ascension
10h 08m 47s
True Declination
0° 00' 00"
Sunlit
Object was in daylight at epoch
Visualization orbit readout
Latitude
Unknown
Longitude
Unknown
Altitude
Unknown
Speed
Unknown
Apparent Right ascension
Unknown
Apparent Declination
Unknown
Sunlit
N/A
Visualization observer readout
Local Sidereal Time
14:39:57
Azimuth
Unknown
Elevation
Unknown
Doppler factor
Unknown
Orbital elements
Apogee altitude
36,536.448 km
Perigee altitude
31,276.865 km
Semi-major axis
40,284.794 km
Eccentricity
0.06528
Inclination
1.324°
RAAN
152.3725°
Arg. of periapsis
335.508°
True anomaly
24.29606°
Mean anomaly
21.3507°
Eccentric anomaly
22.80012°
Mean motion
0.26843 °/min
Orbital period
1,341.13 mins
BSTAR
0
Loading maneuver chart data...
Computing Atmospheric mass density...

Documentation

Showing up to 5 results
|